MHSAA State Championships LP 2018 vs MHSAA State Championships LP 2016

Aggregate Data Points
Difference This Meet That Meet
Overall Athletes -16 1921 1937
Overall Average -1.79 19:33.88 19:35.67
1st-10th Place -11.82 15:31.58 15:43.40
1st-25th Place -7.09 15:44.11 15:51.20
1st-50th Place -2.42 15:55.68 15:58.10
1st-100th Place +0.22 16:09.98 16:09.76
Common Athletes -- -- 402
Ran Faster 184 293 109
Ran Season Best -30 27 57
Average Time -26.94 19:02.53 19:29.47
Median Time -27.50 19:01.50 19:29.00
Middle 80% Times -29.86 18:55.54 19:25.40
Top 10% Times -29.20 15:59.68 16:28.88
Top 25% Times -32.54 16:29.12 17:01.66
Top 50% Times -32.64 17:15.76 17:48.41
Bottom 50% Times -21.24 20:49.29 21:10.52
Bottom 25% Times -10.58 21:55.43 22:06.01
Bottom 10% Times -0.78 23:08.59 23:09.37
Average Difference -26.94 -- --
Median Difference -1:31.90 -- --
Middle 80% Difference -29.94 -- --
Top 10% Difference -21.56 -- --
Top 50% Difference -28.77 -- --
Top 25% Difference -29.35 -- --
Top 50% Difference -28.77 -- --
Bottom 50% Difference -25.11 -- --
Bottom 25% Difference -23.95 -- --
Bottom 10% Difference -6.48 -- --

Performances of Common Athletes
Athlete Team Difference This Meet That Meet
Nick Foster Ann Arbor Pioneer -48.00 15:13.00 16:01.00
Carter Solomon Plymouth -42.90 15:18.10 16:01.00
Alex Comerford Otsego -38.40 15:23.60 16:02.00
Harrison Grzymkowski White Lake Lakeland -19.70 15:32.30 15:52.00
Corey Gorgas Saugatuck -29.20 15:33.80 16:03.00
Evan Bishop East Grand Rapids -40.80 15:35.20 16:16.00
Zach Stewart Brighton -32.50 15:36.50 16:09.00
Brendan Favazza Clarkston -1:34.80 15:39.20 17:14.00
Yami Albrecht Caro -7.20 15:40.80 15:48.00
Ben Jacobs Corunna -19.70 15:43.30 16:03.00
Jeremy Kloss Harbor Springs -27.60 15:45.40 16:13.00
Evan White Highland Milford -41.60 15:46.40 16:28.00
Anthony Hancock Dearborn Divine Child -57.50 15:48.50 16:46.00
Alec Miracle Birmingham Brother Rice -37.20 15:51.80 16:29.00
Sam Martens Holland -32.30 15:52.70 16:25.00
Jack Wilson Romeo -23.00 15:54.00 16:17.00
Andrew Nolan Lake Orion -1:25.50 15:54.50 17:20.00
James Gedris Grosse Ile +1:23.10 17:19.10 15:56.00
Colin Kane Dundee -39.10 15:58.90 16:38.00
Michael Hancock Dearborn Divine Child -21.20 16:02.80 16:24.00
Josh Smith Alpena +7.60 16:10.60 16:03.00
Andrew Hylen Spring Lake -10.50 16:03.50 16:14.00
Tyler Buchanan Linden -1:06.80 16:04.20 17:11.00
Ben Hylen Spring Lake -51.80 16:09.20 17:01.00
Justin Hill Walled Lake Central -1:33.80 16:09.20 17:43.00
Shawn Slater Clarkston -53.50 16:09.50 17:03.00
Nicholas Couyoumjian Northville -15.60 16:11.40 16:27.00
George Nummer Birmingham Seaholm -23.40 16:11.60 16:35.00
David Knarian Bad Axe -1:21.20 16:13.80 17:35.00
Ransom Allen Ithaca -50.80 16:14.20 17:05.00
Carson Rabbitt Chelsea -57.20 16:15.80 17:13.00
Foster Thorburn Chelsea -1:18.00 16:17.00 17:35.00
Matthew Graver Grosse Ile -1:10.50 16:17.50 17:28.00
Alex Taylor Beal City -30.90 16:18.10 16:49.00
Luke Haran Salem -10.70 16:19.30 16:30.00
Colten Covington Grant -52.50 16:19.50 17:12.00
Cole Jensen Montague -1:19.00 16:20.00 17:39.00
Jake Sayers Birmingham Seaholm -54.30 16:20.70 17:15.00
Jamers Ohlsson Pontiac Notre Dame Prep -17.10 16:21.90 16:39.00
Shawn Little Dowagiac -31.70 16:22.30 16:54.00
Andrew Periard East Grand Rapids -28.30 16:22.70 16:51.00
Akshay Reddy Walled Lake Central -50.80 16:24.20 17:15.00
Carson Laney Jonesville -48.30 16:24.70 17:13.00
Matthew Converse Zeeland West +5.10 16:31.10 16:26.00
Hunter Zartman Otsego -26.80 16:26.20 16:53.00
Sam Baustert Whitehall -51.50 16:26.50 17:18.00
Aiden McLaughlin Morley Stanwood -12.20 16:26.80 16:39.00
Will Peters Lansing Catholic -15.10 16:26.90 16:42.00
Gezahegn Starr Parma Western -38.70 16:27.30 17:06.00
Thomas Hufton Lake Fenton -1:01.30 16:27.70 17:29.00
Thomas Westrick Grand Rapids Forest Hills Eastern -1:13.20 16:28.80 17:42.00
William Hofmann Grosse Pointe North -38.10 16:28.90 17:07.00
Kuvin Satyadev Grosse Pointe North -1:04.90 16:29.10 17:34.00
Shane Achterhof Walkerville -1:11.40 16:29.60 17:41.00
Jacob Mcdowell Saginaw Heritage -19.30 16:29.70 16:49.00
Ethan Mielock Ann Arbor Pioneer -7.70 16:30.30 16:38.00
Nate Sesti Clarkston -49.30 16:33.70 17:23.00
Micah Vanderkooi Grand Rapids South Christian +12.90 16:46.90 16:34.00
Luke Daniel Portage Northern -17.90 16:35.10 16:53.00
Lucas Betzoldt Dexter -1:15.40 16:37.60 17:53.00
Caleb Cotton Caro -51.70 16:38.30 17:30.00
Jack Grimm Rockford -22.30 16:38.70 17:01.00
Dominic Weatherwax Grand Haven -33.60 16:40.40 17:14.00
Ethan Hamilton Flint Powers Catholic -1:24.00 16:41.00 18:05.00
Ryan Mulcahy Lake Orion -3.30 16:42.70 16:46.00
Keegan O'Malley McBain -39.30 16:43.70 17:23.00
Micah Beauregard Stockbridge -48.10 16:44.90 17:33.00
Charlie Bruckman Corunna +7.70 16:52.70 16:45.00
Mitch Nurenberg Pewamo-Westphalia -33.10 16:45.90 17:19.00
Austin Hamilton Evart -11.40 16:48.60 17:00.00
Caleb Hodgkinson Grand Rapids Kenowa Hills -14.20 16:48.80 17:03.00
Garrett Schreck Grosse Pointe North -34.70 16:49.30 17:24.00
Dane Nestle Shepherd -39.10 16:49.90 17:29.00
Jevin Nishioka Saline +5.50 16:55.50 16:50.00
Chris Jenkins Grandville Calvin Christian -33.10 16:50.90 17:24.00
Alvaro Martinez Bangor -1:19.50 16:52.50 18:12.00
Ron Tolson Stockbridge -54.00 16:53.00 17:47.00
Eli Meder Lansing Catholic -8.70 16:54.30 17:03.00
Mark Wood Goodrich -1:01.00 16:55.00 17:56.00
Zach White Dundee -1:02.50 16:55.50 17:58.00
Brendan Deneen Fruitport -17.50 16:55.50 17:13.00
David Good Clare +10.50 17:06.50 16:56.00
Jacob Faerber Saginaw Heritage -51.40 16:56.60 17:48.00
Isaac Waffle Olivet +1:33.20 18:33.20 17:00.00
Brenden Knuth Dryden -1:03.70 17:00.30 18:04.00
Aaron Hulburt Caro -33.60 17:00.40 17:34.00
Scott Spaanstra Brighton -20.00 17:01.00 17:21.00
Nathan Woods Evart -1:54.10 17:01.90 18:56.00
Zach Bode McBain -15.70 17:04.30 17:20.00
Nolan Mcgahan Brighton -1:02.60 17:04.40 18:07.00
Noah Verlinde Armada -54.90 17:05.10 18:00.00
Colin Chevalier Temperance-Bedford -33.60 17:06.40 17:40.00
Tj Moore Mt. Pleasant Sacred Heart -1:04.30 17:06.70 18:11.00
Chase Nelson Mt. Pleasant Sacred Heart -37.70 17:07.30 17:45.00
John Caley Brighton -33.30 17:07.70 17:41.00
Ben Darmofal Mason -35.10 17:07.90 17:43.00
Ericka Vanderlende Rockford -2:49.60 17:08.40 19:58.00
Isaiah Romeyn Ellsworth -29.60 17:08.40 17:38.00
Zach Morse Addison -54.10 17:08.90 18:03.00
Ivan Westgate Onsted +7.30 17:16.30 17:09.00
Eric Niestroy Lake Fenton -26.10 17:10.90 17:37.00
Eric Warriner Lansing Catholic +42.20 17:53.20 17:11.00
Seth Schafer Shepherd -31.70 17:12.30 17:44.00
Pedro Roman Benzie Central -28.60 17:12.40 17:41.00
Matthew Vanderwall Spring Lake -1:12.50 17:12.50 18:25.00
Austin Smar Harbor Springs -1:07.10 17:12.90 18:20.00
Garrett Melling Hanover-Horton -36.50 17:13.50 17:50.00
Kyle Hengesbach Pewamo-Westphalia -8.10 17:13.90 17:22.00
Vincent Vermeulen Ann Arbor Greenhills +0.50 17:14.50 17:14.00
Noah Scheffer Temperance-Bedford +11.80 17:25.80 17:14.00
Alex Sheehy Walkerville -4:49.60 17:15.40 22:05.00
Troy Hagen Pewamo-Westphalia -3:38.20 17:15.80 20:54.00
Cooper Lenzi Clio -1:21.50 17:17.50 18:39.00
Jackson Hagen Clio -2:53.90 17:18.10 20:12.00
Andy Swihart Hanover-Horton -27.50 17:18.50 17:46.00
Chad Donahue Grosse Ile -56.50 17:18.50 18:15.00
Taelor Eernisse Parma Western -1:13.30 17:19.70 18:33.00
Cody Rapelje St. Johns -48.30 17:19.70 18:08.00
Sean Coney East Grand Rapids -17.50 17:20.50 17:38.00
Oscar Hernandez Dearborn Divine Child -1:09.30 17:20.70 18:30.00
Evan Griffiths Berrien Springs -20.70 17:21.30 17:42.00
Max Rathburn Portage Northern -9.40 17:21.60 17:31.00
Colton Cowley Sandusky -9.20 17:21.80 17:31.00
Aidan Jones Holland Black River -47.60 17:22.40 18:10.00
Carter Sheline Berrien Springs -1:34.10 17:25.90 19:00.00
Jordan Mawhirter Blanchard Montabella +17.70 17:43.70 17:26.00
Dan Raush Hopkins +57.60 18:24.60 17:27.00
Ben Lentz Charlevoix -49.30 17:28.70 18:18.00
Zech Kmiecik Mason County Central -14.70 17:30.30 17:45.00
Jake Hannawa Birmingham Brother Rice -4.50 17:30.50 17:35.00
Jackson Brown Almont +1.70 17:32.70 17:31.00
Luke Tarr Potterville -44.20 17:31.80 18:16.00
Ben Moeggenberg Shepherd -35.40 17:33.60 18:09.00
Josh Lynch Mt. Pleasant Sacred Heart -52.30 17:33.70 18:26.00
Hunter Tubbs Hart -8.90 17:36.10 17:45.00
Caleb Maher Rochester Hills Lutheran Northwest -1:47.60 17:36.40 19:24.00
Carter Rose Erie-Mason -8.40 17:38.60 17:47.00
Anders Bogard Kalamazoo Christian +33.30 18:12.30 17:39.00
Adelyn Ackley Hart +1.80 17:42.80 17:41.00
Dillon Brown Walkerville -1:12.80 17:41.20 18:54.00
Donovan Kennedy Hanover-Horton -2.30 17:42.70 17:45.00
Ethan Rice Rochester Hills Lutheran Northwest -21.40 17:45.60 18:07.00
Jake Reaume Temperance-Bedford +4.00 17:51.00 17:47.00
Austin DePue Temperance-Bedford +1:00.70 18:47.70 17:47.00
Parker Reynolds North Muskegon -38.40 17:48.60 18:27.00
Eli Rotman Muskegon Western Michigan Christian -40.10 17:48.90 18:29.00
Adrian Rodriguez White Cloud -36.20 17:52.80 18:29.00
Carter Finch Bangor -19.70 17:53.30 18:13.00
Nick Kilburn Unionville-Sebewaing -34.70 17:53.30 18:28.00
Amber Gall Shepherd -50.40 17:53.60 18:44.00
Kaleb Schroeder Clare -56.80 17:57.20 18:54.00
Hunter Finnila Battle Creek St. Philip -1:48.30 17:57.70 19:46.00
Kyla Christopher-Moody West Bloomfield -2.40 17:58.60 18:01.00
Madeline Rehm White Lake Lakeland -44.00 18:00.00 18:44.00
Devin Daunt Flint Powers Catholic -41.90 18:01.10 18:43.00
Jaden Theis Lansing Catholic -53.10 18:01.90 18:55.00
Blake Klocke Onsted -10.00 18:03.00 18:13.00
Ben Rutherford Battle Creek St. Philip -49.70 18:06.30 18:56.00
Ashlynn Nagel Bay City Western -1:22.40 18:06.60 19:29.00
Jayce Miller Clare -2.20 18:06.80 18:09.00
Victoria Heiligenthal Highland Milford -20.10 18:06.90 18:27.00
Ethan Combs Lansing Christian +31.00 18:38.00 18:07.00
Gabby Hentemann Grand Haven -28.70 18:07.30 18:36.00
Noelle Adriaens Pinckney -1:31.90 18:08.10 19:40.00
Kyle Chalut Flint Powers Catholic -28.10 18:08.90 18:37.00
Xavier Addison Mt. Pleasant Sacred Heart -32.40 18:10.60 18:43.00
Abby Inch Farmington -38.10 18:10.90 18:49.00
Samantha Tran Grand Rapids Forest Hills Northern -35.00 18:11.00 18:46.00
Rylee Robinson Waterford Mott -4.50 18:12.50 18:17.00
Mia Patria Clarkston -1:11.70 18:13.30 19:25.00
Lucas Sweet Ellsworth +39.30 18:53.30 18:14.00
Makenna Veen Plainwell -28.50 18:16.50 18:45.00
Ethan Borck Hudson -37.00 18:20.00 18:57.00
Matt Record Concord -1:49.40 18:20.60 20:10.00
Eric Moore Plymouth Christian -3:42.10 18:26.90 22:09.00
Alexa Keiser Fenton -7.30 18:28.70 18:36.00
Quinn Mclaren Plymouth Christian +12.40 18:42.40 18:30.00
Jordan Reynolds Potterville -1:06.20 18:30.80 19:37.00
Dylan Morrish Clare -3.50 18:31.50 18:35.00
Cambria Tiemann Fenton +53.30 19:25.30 18:32.00
Collin Patrick Parma Western +8.90 18:41.90 18:33.00
Noah Lopez Grosse Ile +32.40 19:06.40 18:34.00
Jarrett Buckner Bear Lake -1:06.40 18:34.60 19:41.00
Taryn Chapko St. Johns -31.20 18:35.80 19:07.00
Klaudia O'Malley McBain +10.20 18:48.20 18:38.00
Lauren Freeland Kent City -54.40 18:40.60 19:35.00
Anastasia Tucker Midland Dow -36.60 18:42.40 19:19.00
Caleb Godwin Ellsworth -41.30 18:42.70 19:24.00
Peyton Witt Portage Northern +27.50 19:10.50 18:43.00
Kayla Fortino Saline -1:04.70 18:43.30 19:48.00
Nicole Cybul Northville -21.20 18:43.80 19:05.00
Allison Sherman Lake Orion -42.60 18:44.40 19:27.00
Bryan Smith Concord -23.50 18:45.50 19:09.00
Nick Forche Sand Creek -22.00 18:47.00 19:09.00
Nathan Reihl Beal City +36.60 19:24.60 18:48.00
Alex Leonard Kalamazoo Hackett +1:16.40 20:04.40 18:48.00
Jillian Lange Goodrich +3.60 18:53.60 18:50.00
Cecilia Stalzer Mason +21.20 19:13.20 18:52.00
Meg Scheske Sturgis -20.10 18:52.90 19:13.00
Connor Mclaren Benzie Central -2:04.40 18:53.60 20:58.00
Anna Vogel Ann Arbor Pioneer -49.10 18:55.90 19:45.00
Richard Adams Ellsworth -1.00 18:56.00 18:57.00
Katie Hessler East Grand Rapids -1:00.40 18:56.60 19:57.00
Caleb Godin Plymouth Christian -1:22.30 18:56.70 20:19.00
Abby Olson Holland West Ottawa -36.60 18:59.40 19:36.00
Elka Machan Coldwater -1:56.10 18:59.90 20:56.00
Jacob Rusch Madison Heights Bishop Foley -1:16.20 19:00.80 20:17.00
Courtney Jarema Pinckney -27.50 19:01.50 19:29.00
Seanna Schmidt Milan -32.40 19:01.60 19:34.00
Isabella Johnson Temperance-Bedford -2:04.80 19:03.20 21:08.00
Audrey Whiteside East Grand Rapids -1:13.60 19:04.40 20:18.00
Rylee Lukes White Lake Lakeland -21.50 19:04.50 19:26.00
Emma Woltjer Caledonia -43.40 19:05.60 19:49.00
Devon Krasner Grosse Pointe South -2:31.30 19:06.70 21:38.00
Meghan Langworthy Big Rapids -36.10 19:07.90 19:44.00
Haley Aho Dearborn Divine Child +1:42.80 20:51.80 19:09.00
Katherine Ray Novi -17.00 19:09.00 19:26.00
Charlie Brown Clare -33.80 19:09.20 19:43.00
Sofia Perez DeWitt -3:43.50 19:09.50 22:53.00
Thailyia Christensen Flushing -55.20 19:09.80 20:05.00
Madelyn Malczewski Romeo -1:04.20 19:09.80 20:14.00
Cammie Mcconnell Mt. Pleasant Sacred Heart +1:02.30 20:13.30 19:11.00
Ellie Kendell Royal Oak Shrine -2:40.90 19:13.10 21:54.00
Sydney Kubiak Otsego +39.90 19:53.90 19:14.00
Elise Gray Hudsonville -2:18.70 19:15.30 21:34.00
Kori Baumann Allendale -1:03.40 19:15.60 20:19.00
Sydney Nesbitt Bay City Western -23.00 19:16.00 19:39.00
Luca Leffew Bear Lake -6.60 19:18.40 19:25.00
Paige Saiz Highland Milford -1:52.10 19:18.90 21:11.00
Charlene Yarema Romeo -2:53.50 19:20.50 22:14.00
Emily Ferguson Clarkston -3.00 19:21.00 19:24.00
Lainey Veenkant Clare -3.50 19:21.50 19:25.00
Aubrey George Pewamo-Westphalia +25.40 19:47.40 19:22.00
Katelyn Duffing Traverse City St. Francis +7.10 19:31.10 19:24.00
Mia Garcia Pinckney -2.00 19:24.00 19:26.00
Molly Thompson Paw Paw +18.80 19:43.80 19:25.00
Leah Socks Traverse City Central -37.10 19:25.90 20:03.00
Rihana Pellow Grand Rapids Ottawa Hills +2:06.70 21:32.70 19:26.00
Thea Johnson Saugatuck -0.80 19:26.20 19:27.00
Xochitl Garcia Bronson -44.20 19:26.80 20:11.00
Natalie Newcombe Remus Chippewa Hills -1:29.30 19:28.70 20:58.00
Joel Carlson Potterville -1:21.50 19:31.50 20:53.00
Mallory Dawes Ann Arbor Pioneer -22.70 19:32.30 19:55.00
Brooke Soper Okemos -16.40 19:32.60 19:49.00
Haley Hegenauer Shepherd +25.30 19:58.30 19:33.00
Natalie Black Highland Milford +56.70 20:29.70 19:33.00
Hannah Durant Goodrich -1:56.80 19:33.20 21:30.00
Callie Hastie Ann Arbor Huron +10.10 19:44.10 19:34.00
Jarod Coon Sandusky +27.90 20:01.90 19:34.00
Riley Ford Marlette -57.40 19:34.60 20:32.00
Olivia Harp Northville -37.30 19:34.70 20:12.00
Isabella Lindsay North Muskegon -20.20 19:34.80 19:55.00
Ella Woehlke Saline -29.50 19:36.50 20:06.00
Hunter Luke Byron +37.60 20:14.60 19:37.00
Audrey Renaud Dearborn Divine Child -41.70 19:37.30 20:19.00
Libby Gorman Traverse City St. Francis -35.50 19:38.50 20:14.00
Alisa Erickson Grosse Ile -11.90 19:40.10 19:52.00
Kathy Potter Coldwater -50.10 19:40.90 20:31.00
Lauren Macdonald Mt. Pleasant Sacred Heart +9.70 19:50.70 19:41.00
Lauren Lasceski St. Johns -1:01.40 19:41.60 20:43.00
Katelyn Nadeau Monroe Jefferson +13.10 19:55.10 19:42.00
Kaitlin Murray Dearborn Divine Child -1:14.30 19:42.70 20:57.00
Landyn Howell Grand Rapids Forest Hills Eastern -1:41.40 19:43.60 21:25.00
Jasmine Fisher Hopkins +59.50 20:43.50 19:44.00
Alexa Stern Saline -1:06.40 19:44.60 20:51.00
Desiree McConnell Mt. Pleasant Sacred Heart -29.30 19:44.70 20:14.00
Abby Buitenhuis Grand Haven -32.50 19:45.50 20:18.00
Kate Frauenheim Holland West Ottawa -59.80 19:48.20 20:48.00
Lily Connelly Croswell-Lexington -2:09.70 19:48.30 21:58.00
Sheila Witvliet Grandville Calvin Christian -37.20 19:48.80 20:26.00
Sierra Pallin Benzie Central +43.70 20:32.70 19:49.00
Scout Nelson Mt. Pleasant Sacred Heart -19.90 19:50.10 20:10.00
Renee Osborne Pittsford -57.60 19:50.40 20:48.00
Samantha Schmidt Fremont -43.00 19:51.00 20:34.00
Katelyn Feldpausch Corunna -50.70 19:51.30 20:42.00
Natalie Martinson Saugatuck -1:00.20 19:51.80 20:52.00
Faith Schafer Williamston -26.80 19:52.20 20:19.00
Erin Seibert Livonia Franklin -20.70 19:52.30 20:13.00
Julia Bajt Spring Lake -1:23.60 19:52.40 21:16.00
Amanda Wood Macomb Lutheran North -1:28.30 19:52.70 21:21.00
Bridget Nelson Salem -44.70 19:53.30 20:38.00
Brenna Aerts Hart -1:03.50 19:53.50 20:57.00
Addie Sommers St. Johns +51.10 20:45.10 19:54.00
Alicia Estrella Grandville Calvin Christian -41.00 19:54.00 20:35.00
Caleigh Winters Potterville -1:51.90 19:55.10 21:47.00
Jelena Prescott Bad Axe -45.80 19:56.20 20:42.00
Avery Schenk Zeeland West -1:28.30 19:56.70 21:25.00
Haili Gusa Ubly +7.00 20:07.00 20:00.00
Olivia Quillan Grandville Calvin Christian -1:38.30 20:00.70 21:39.00
Savannah Goddeeris Brown City -2:04.70 20:01.30 22:06.00
Erika Rapp Pinckney -14.30 20:01.70 20:16.00
Mary Bradshaw Manchester -19.10 20:01.90 20:21.00
Megan Demeester Holland Christian +1:09.10 21:11.10 20:02.00
Emily Monroe Milan +42.10 20:45.10 20:03.00
Iris Swarthout Holland West Ottawa -1:32.20 20:04.80 21:37.00
Brooke Aho Dearborn Divine Child +1:34.20 21:42.20 20:08.00
Zoe Louis Hudsonville -1:00.10 20:09.90 21:10.00
Hallie Younglas Salem +4.60 20:14.60 20:10.00
Gabrielle Mancini Salem +1:00.20 21:10.20 20:10.00
Ella Ryan Ann Arbor Pioneer +44.40 20:54.40 20:10.00
Annie Laurenz Breckenridge +44.20 20:56.20 20:12.00
Alli Smith Temperance-Bedford -47.40 20:12.60 21:00.00
Lizzy Bruxvoort Holland Christian -1:23.10 20:12.90 21:36.00
Hannah Ordiway Sanford-Meridian +1:04.60 21:17.60 20:13.00
Christine Scerbak Traverse City St. Francis +21.60 20:39.60 20:18.00
Emily Westrick Marysville -51.80 20:20.20 21:12.00
Olivia Haring Clare -6.70 20:20.30 20:27.00
Emily Nurenberg Pewamo-Westphalia -51.80 20:21.20 21:13.00
Reagan Mcnally Birmingham Seaholm -1:00.30 20:21.70 21:22.00
Emily Rennich Ann Arbor Pioneer -1.70 20:22.30 20:24.00
Haleigh Adams Adrian Lenawee Christian -30.70 20:23.30 20:54.00
Alaina Carroll Armada +3.90 20:28.90 20:25.00
Mirranda Libbey Owosso -1:58.70 20:25.30 22:24.00
Paige Johnston Benzie Central +12.10 20:38.10 20:26.00
Morgan Steenstra Grandville Calvin Christian -41.10 20:27.90 21:09.00
Paige Swiriduk Manton +6.80 20:34.80 20:28.00
Nelly Gonzalez Bloomingdale -41.50 20:28.50 21:10.00
Emma Wachler Charlevoix -29.50 20:29.50 20:59.00
Adrianna Malburg Mason County Eastern -1:22.20 20:29.80 21:52.00
Avery Stadt Boyne City +17.10 20:47.10 20:30.00
Brooklyn Filipiak St. Louis +43.30 21:14.30 20:31.00
Jocelyn Boote Manchester -0.30 20:34.70 20:35.00
Peyton Starner Monroe St. Mary Catholic Central +22.80 20:59.80 20:37.00
Megan Mcculloch Marysville -17.40 20:38.60 20:56.00
Madelyn Taylor Traverse City St. Francis +18.50 20:57.50 20:39.00
Anthony Marcopoli Madison Heights Bishop Foley -21.40 20:43.60 21:05.00
Harmony Harpster Quincy -37.00 20:44.00 21:21.00
Emme Koutz Ovid-Elsie -13.60 20:44.40 20:58.00
Sarah Vanderkooi Muskegon Western Michigan Christian +36.00 21:21.00 20:45.00
Kyle Kaczmar Madison Heights Bishop Foley +3.10 20:48.10 20:45.00
Samantha Bieth Marine City -1:04.70 20:45.30 21:50.00
Kameron Haag Clare -3.50 20:45.50 20:49.00
Abigal Kline Indian River-Inland Lakes +1:03.00 21:52.00 20:49.00
Jillian Vera Saugatuck +44.50 21:33.50 20:49.00
Emily Stabinsky Troy -12.40 20:49.60 21:02.00
Whitley Blake Brown City -4.30 20:49.70 20:54.00
Emily Sterling Boyne City -5.90 20:50.10 20:56.00
Bailey Droste Pewamo-Westphalia +18.30 21:11.30 20:53.00
Sophie Trudgon Grand Rapids Catholic Central -1.30 20:54.70 20:56.00
Allison Rand Jackson Lumen Christi -9.40 20:55.60 21:05.00
Josie Aardema Muskegon Western Michigan Christian -7.70 20:56.30 21:04.00
Emma Pachay Marcellus +9.00 21:07.00 20:58.00
Ella Bowman White Cloud +1:27.60 22:26.60 20:59.00
Emma Hayhurst Harbor Springs -22.40 20:59.60 21:22.00
Ava Klein Marshall +9.60 21:12.60 21:03.00
Cornelia Gotaas Alma +7.20 21:11.20 21:04.00
Amber Bos Grand Rapids Covenant Christian -2.50 21:04.50 21:07.00
Christy Figueroa Ellsworth +1:07.20 22:17.20 21:10.00
Jordan Craven Whitmore Lake +7.50 21:19.50 21:12.00
Madelyn Allman Quincy -2:03.70 21:12.30 23:16.00
Libbie Gleason Flint Powers Catholic -30.80 21:17.20 21:48.00
Allison Hawken Reese +7.10 21:27.10 21:20.00
Allyson Stevens Carson City-Crystal +36.50 21:58.50 21:22.00
Madi Elliott Battle Creek St. Philip -41.80 21:22.20 22:04.00
Samantha Vermeesch Ithaca +1:05.90 22:28.90 21:23.00
Rachel Vogt Parma Western -59.00 21:23.00 22:22.00
Brianna Eisenga McBain +14.20 21:38.20 21:24.00
Emma Helder Hopkins +12.40 21:36.40 21:24.00
Michelle Baek Troy +48.40 22:12.40 21:24.00
Jessie Rieth Three Oaks-River Valley +15.30 21:42.30 21:27.00
Leah Rau Grand Rapids Covenant Christian +30.20 21:57.20 21:27.00
Allison Hoop Jackson Lumen Christi +16.20 21:43.20 21:27.00
Samantha Rapson Frankenmuth +35.80 22:04.80 21:29.00
Megan Dopheide Lawton -33.10 21:29.90 22:03.00
Olivia Hubbard Parma Western +19.40 21:52.40 21:33.00
Emmaline Peterson Charlevoix +1:13.40 22:49.40 21:36.00
Molly Kitson East Jordan -23.20 21:39.80 22:03.00
Jaylen Schroeder Big Rapids Crossroads Charter +6.80 21:47.80 21:41.00
Megan Scholten Charlevoix -19.40 21:41.60 22:01.00
Lexi Hill Hudson +23.20 22:12.20 21:49.00
Ciara Glynn Lake Leelanau St. Mary -15.00 21:50.00 22:05.00
Faith Bartnik Ithaca +17.10 22:09.10 21:52.00
Averie Hollowood Jackson Christian -3.40 21:55.60 21:59.00
Alyssa Pollauf Marine City -24.70 21:58.30 22:23.00
Mikayla Bowen Hudson +35.00 22:34.00 21:59.00
Anna Richards Hillsdale Academy +59.00 23:01.00 22:02.00
Riley Day Lutheran Westland +5.90 22:12.90 22:07.00
Aoife O'grady Carson City-Crystal +57.60 23:09.60 22:12.00
Zoe Neirink Frankenmuth +26.00 22:39.00 22:13.00
Kaitlin Essig Bridgman +29.20 22:46.20 22:17.00
Falyn Mansfield Indian River-Inland Lakes -43.50 22:18.50 23:02.00
Elizabeth Snow Breckenridge +29.40 22:54.40 22:25.00
Natalie Halsey Potterville +7.80 22:40.80 22:33.00
Mya Shirey Hudson +41.10 23:15.10 22:34.00
Makenzie Blatter Quincy +1:05.90 23:41.90 22:36.00
Katrina Kline Almont -1:55.40 22:38.60 24:34.00
Myra Marr Breckenridge +8.30 22:50.30 22:42.00
Addison Goy Fairview +1:37.10 24:26.10 22:49.00
Alyssa Wabindato Potterville +46.20 23:48.20 23:02.00
Eva Warmbier Plymouth Christian +1:55.10 25:00.10 23:05.00
Tess Mervenne Bloomfield Hills Marian -13.80 23:11.20 23:25.00
Anna Loar Hudson -1.80 23:16.20 23:18.00
Mary Macdonald Lake Leelanau St. Mary +4.90 23:23.90 23:19.00
Sarah Sitzema Ellsworth -27.40 23:27.60 23:55.00
Amy Steinkraus Marcellus -4:22.80 23:33.20 27:56.00
Lexi Bainbridge Marcellus -2:07.00 23:34.00 25:41.00
Andrea Grifka Ubly -1:20.80 23:42.20 25:03.00
Margaret Hartigan Grosse Pointe Woods University Liggett -23.00 23:50.00 24:13.00
Ava Henness Grosse Pointe Woods University Liggett +1:17.30 25:38.30 24:21.00
Kaylie Vandenbossche Marine City +25.20 25:15.20 24:50.00
Alexandra Kirt Lake Leelanau St. Mary +46.00 26:03.00 25:17.00
Emma Visker Muskegon Western Michigan Christian -6.90 25:38.10 25:45.00